This is the latest recevied weather packets stored in our database for station/object SP5EB-3. If no packets are shown the sender has not sent any weather packets the latest 10 day(s).
| Time | Temp. | Humidity | Pressure | Rain* | Wind** | Luminosity | Snow |
|---|---|---|---|---|---|---|---|
| 1778143978 | 12.78° C | 1% | 1008.3 hPa | - | - | - | - |
| 1778143671 | 12.78° C | 56% | 1008.1 hPa | - | - | - | - |
| 1778143364 | 12.78° C | 63% | 1008.1 hPa | - | - | - | - |
| 1778143057 | 13.33° C | 23% | 1008.1 hPa | - | - | - | - |
| 1778142749 | 13.33° C | 1% | 1008 hPa | - | - | - | - |
| 1778142441 | 13.33° C | 1% | 1007.9 hPa | - | - | - | - |
| 1778141827 | 13.33° C | 1% | 1007.8 hPa | - | - | - | - |
| 1778141519 | 13.33° C | 99% | 1007.7 hPa | - | - | - | - |
| 1778140905 | 13.89° C | 99% | 1007.5 hPa | - | - | - | - |
| 1778140596 | 13.89° C | 99% | 1007.6 hPa | - | - | - | - |
| 1778139981 | 13.89° C | 99% | 1007.6 hPa | - | - | - | - |
| 1778139674 | 14.44° C | 1% | 1007.4 hPa | - | - | - | - |
| 1778139366 | 14.44° C | 1% | 1007.4 hPa | - | - | - | - |
| 1778139233 | 15° C | 1% | 1007.2 hPa | - | - | - | - |
| 1778139233 | 15° C | 1% | 1007.3 hPa | - | - | - | - |
| 1778139059 | 15° C | 1% | 1007.3 hPa | - | - | - | - |
| 1778138750 | 15° C | 1% | 1007.2 hPa | - | - | - | - |
| 1778138443 | 15° C | 1% | 1007.1 hPa | - | - | - | - |
| 1778138135 | 15° C | 1% | 1007.1 hPa | - | - | - | - |
| 1778137828 | 15° C | 1% | 1007 hPa | - | - | - | - |
| 1778137520 | 15° C | 1% | 1006.9 hPa | - | - | - | - |
| 1778136904 | 15.56° C | 1% | 1006.7 hPa | - | - | - | - |
| 1778136596 | 15.56° C | 1% | 1006.7 hPa | - | - | - | - |
| 1778136289 | 15.56° C | 1% | 1006.6 hPa | - | - | - | - |
| 1778135981 | 15.56° C | 1% | 1006.7 hPa | - | - | - | - |
* Rain since midnight (hover to see other rain measurements)
** Current wind speed in m/s (hover to see current wind gust speed)